Regional Weather Roundup
Issued by NWS

Home | Current Version | Previous Version | Graphics & Text | Print | Product List | Glossary On
Versions: 1 2 3 4 5 6 7 8 9 10 11 12 13 14 15 16 17 18 19 20 21 22 23 24 25 26 27 28 29 30 31 32 33 34 35 36 37 38 39 40 41 42 43 44 45 46 47 48 49 50
439
ASUS43 KLOT 291004
RWRIL

ILLINOIS REGIONAL WEATHER ROUNDUP
NATIONAL WEATHER SERVICE CHICAGO/ROMEOVILLE IL
500 AM CDT THU JUN 29 2017

NOTE: "FAIR" INDICATES FEW OR NO CLOUDS BELOW 12,000 FEET WITH NO
SIGNIFICANT WEATHER AND/OR OBSTRUCTIONS TO VISIBILITY.

* THESE STATIONS ARE NOT UNDER NWS QUALITY CONTROL. THEY ALSO MAY NOT
  REPORT WEATHER SUCH AS PRECIPITATION OR FOG.

ILZ001-002-007-009-015-016-024-291100-
NORTHWEST ILLINOIS

CITY           SKY/WX    TMP DP  RH WIND       PRES   REMARKS
MOLINE         CLOUDY    70  59  68 SW15G24   29.76R
STERLING*      CLOUDY    70  61  73 SW10      29.76R
SAVANNA*       CLOUDY    72  60  66 SW14G23   29.75R
$$

ILZ003-004-008-010-011-017-018-291100-
NORTH CENTRAL ILLINOIS

CITY           SKY/WX    TMP DP  RH WIND       PRES   REMARKS
ROCKFORD       CLOUDY    70  63  78 W8        29.74R
FREEPORT*      CLOUDY    69  62  79 W10       29.76R
ROCHELLE*      CLOUDY    68  60  75 W9        29.74S
DE KALB*       MOCLDY    70  60  70 SW15      29.75R
PERU*          CLOUDY    69  59  70 SW8       29.77R
$$

ILZ005-006-012>014-019>023-291100-
NORTHEAST ILLINOIS

CITY           SKY/WX    TMP DP  RH WIND       PRES   REMARKS
CHICAGO-OHARE  CLOUDY    71  64  78 S9        29.72S
CHICAGO-MIDWAY CLOUDY    73  65  75 S12       29.73S
AURORA         MOCLDY    70  64  81 SW9       29.75R
LANSING*       CLOUDY    73  63  69 S9        29.76S
JOLIET*        CLOUDY    73  66  79 SW3       29.76R
WAUKEGAN       CLOUDY    64  63  96 SW6       29.71R
DUPAGE AIRPORT CLOUDY    69  65  86 S6        29.73S
WHEELING       CLOUDY    68  67  96 S6        29.73R
MORRIS*        CLOUDY    71  64  78 SW7       29.76R
ROMEOVILLE*    CLOUDY    70  63  78 SW9       29.76R
$$

LMZ740>746-291100-
SOUTHERN LAKE MICHIGAN

STATION/POSITION SKY/WX   TEMP    WIND        PRES    VSBY  WAVE
                          AIR SEA DIR/SP/G                  HT/PER
                          (F)     (DEG/KT/KT) (MB)    (MI)  (FT/S)
SOUTHERN BUOY              65 60  180/ 10/ 16 1006.1          2/ 5
WILMETTE HARBOR            68 61  200/ 10/ 14   N/A           3/ 4
HARRISON CRIB              74     190/ 22/ 23   N/A
BURNHAM HARBOR             73                   N/A
CALUMET HARBOR             74     190/  5/  9 1007.2R
BURNS HARBOR               75     190/ 16/ 20 1008.1F
MICHIGAN CITY              73     170/ 13/ 16   N/A
MICHIGAN CITY 6N           72 65  200/ 16/ 21   N/A           1/ 2
ST. JOSEPH                 70 67  170/ 12/ 16 1007.3F         2/ 2
$$

ILZ025>027-034>036-040-047-049-050-058-095>099-291100-
WEST-CENTRAL ILLINOIS

CITY           SKY/WX    TMP DP  RH WIND       PRES   REMARKS
QUINCY         LGT RAIN  66  62  87 SW22G30   29.85R
GALESBURG*     CLOUDY    67  61  81 SW12G17   29.80R
MACOMB*        CLOUDY    66  62  88 W12       29.83R
JACKSONVILLE*  LGT RAIN  70  60  72 S20       29.81F
PITTSFIELD*    LGT RAIN  67  64  87 SW14      29.89F
$$

ILZ028>032-037-038-041>044-048-051>054-059>061-291100-
CENTRAL ILLINOIS

CITY           SKY/WX    TMP DP  RH WIND       PRES   REMARKS
PONTIAC        CLOUDY    72  65  79 W7        29.80R
BLOOMINGTON    CLOUDY    74  61  63 S22G33    29.77R
DECATUR        CLOUDY    73  64  73 SW18      29.83F
PEORIA         CLOUDY    68  62  81 NW3       29.79R
LACON*         CLOUDY    69  61  75 SW6       29.77R
LINCOLN*       MOCLDY    75  64  67 S15G25    29.75F
SPRINGFIELD    CLOUDY    75  63  66 SW15G25   29.82F
TAYLORVILLE    CLOUDY    72  65  79 S16       29.86F
$$

ILZ033-039-045-046-055>057-062-063-291100-
EAST-CENTRAL ILLINOIS

CITY           SKY/WX    TMP DP  RH WIND       PRES   REMARKS
CHAMPAIGN      CLOUDY    73  63  70 S23G32    29.81F
RANTOUL*       MOCLDY    76  66  70 S26G35    29.77F
MATTOON        CLOUDY    73  66  78 S13       29.90F
PARIS*         MOCLDY    72  65  78 SW13G20   29.91F
$$

ILZ079-100>102-291100-
SOUTHWEST ILLINOIS

CITY           SKY/WX    TMP DP  RH WIND       PRES   REMARKS
ALTON          MOCLDY    74  67  77 SW14      29.93S
BELLEVILLE     CLOUDY    72  66  80 NW3       29.98R
CAHOKIA*       CLOUDY    76  64  66 W3        29.96R
SPARTA*        PTCLDY    70  65  82 S6        29.97S
$$

ILZ064>066-069>071-074>076-080>082-084>086-088>090-092>094-291100-
SOUTH-CENTRAL ILLINOIS

CITY           SKY/WX    TMP DP  RH WIND       PRES   REMARKS
CARBONDALE     CLEAR     66  66 100 CALM      29.98R
CAIRO*         CLEAR     72  66  82 S6        30.00R
EFFINGHAM*     MOCLDY    73  65  76 S9        29.96S
MARION         CLEAR     70  68  94 S3        29.99S
MT. VERNON     MOCLDY    69  65  86 CALM      29.99R
CENTRALIA*     MOCLDY    71  66  84 S7        29.96R
SALEM*         CLOUDY    74  65  73 S8        29.96S
METROPOLIS*    CLEAR     71  65  83 CALM      30.01R
$$

ILZ067-068-072-073-078-083-087-091-291100-
SOUTHEAST ILLINOIS

CITY           SKY/WX    TMP DP  RH WIND       PRES   REMARKS
LAWRENCEVILLE  MOCLDY    69  65  86 S7        29.98R
FLORA*         MOCLDY    71  65  82 SW9       29.97S
FAIRFIELD*     MOCLDY    69  66  90 CALM      29.97S
HARRISBURG*    CLEAR     68  65  90 S3        30.00R
ROBINSON*      CLOUDY    70  64  81 S8        29.96S
CARMI*         CLOUDY    67  65  93 S3        29.99S
$$

ABBREVIATIONS USED IN REMARKS
   TC - TEMPERATURE IN CELSIUS
  WCI - WIND CHILL INDEX
   HX - HEAT INDEX
  VSB - VISIBILITY
$$





USA.gov is the U.S. government's official web portal to all federal, state and local government web resources and services.